Sparrow
1 43881U 18111F 20205.49956932 .00000662 00000-0 63208-4 0 9999
2 43881 097.7018 112.7135 0013977 118.5414 241.7216 14.96555731083885
Lume 1
1 43908U 18111AJ 20205.52940937 .00000718 00000-0 31341-4 0 9996
2 43908 097.2622 104.3977 0021888 020.2877 339.9226 15.25094602087528
FO-98
1 43933U 19003B 20205.41542191 .00000488 00000-0 24109-4 0 9991
2 43933 097.2275 253.7727 0019509 113.2038 247.1256 15.22152827084005
FO-99
1 43937U 19003F 20205.39790837 .00000893 00000-0 38868-4 0 9991
2 43937 97.2237 255.0995 0025810 97.2722 263.1451 15.24454059 84113
Delphini 1
1 44030U 98067PW 20205.49625256 .00012954 00000-0 12296-3 0 9993
2 44030 051.6340 131.5132 0002578 204.9486 155.1386 15.67281166084164
MYSat 1
1 44045U 18092F 20205.34771450 .00001123 00000-0 41467-4 0 9990
2 44045 51.6393 227.9816 0011730 93.4928 266.7397 15.36810378 80806
AstroCast 0.2
1 44083U 19018F 20205.12954235 .00000411 00000-0 21244-4 0 9991
2 44083 97.4188 265.6776 0014471 52.1921 308.0623 15.21644008 72804
AISTechSat 3
1 44103U 19018AB 20205.83317677 .00000444 00000-0 21706-4 0 9994
2 44103 97.4065 266.5632 0014934 63.6129 47.7896 15.23209335 72972
AISat 1
1 44104U 19018AC 20205.44322269 .00000667 00000-0 23688-4 0 9993
2 44104 097.4622 275.3403 0059773 085.3133 275.4931 15.31109560073319
Raavana-1
1 44329U 98067QE 20205.55757326 .00006691 00000-0 92599-4 0 9991
2 44329 051.6393 153.0797 0006041 130.4824 229.6695 15.58429636062631
Uguisu
1 44330U 98067QF 20205.57212847 .00006932 00000-0 96022-4 0 9992
2 44330 051.6368 153.1641 0006067 129.8747 230.2780 15.58335742062613
NepaliSat-1
1 44331U 98067QG 20205.80605813 .00006996 00000-0 96447-4 0 9999
2 44331 51.6370 151.7287 0006051 134.0403 226.1088 15.58448333 62668
Prox-1
1 44339U 19036A 20205.46126050 .00000637 00000-0 10123-3 0 9991
2 44339 023.9990 245.3083 0010717 181.6789 178.3667 14.53043511057375
Oculus-ASR
1 44348U 19036K 20205.52254985 .00008650 00000-0 12639-3 0 9994
2 44348 028.5168 146.6512 0365540 332.6926 025.4874 15.02894762059237
Armadillo
1 44352U 19036P 20205.53651945 .00012843 00000-0 18784-3 0 9993
2 44352 028.5320 141.3342 0352503 340.4709 018.2675 15.05800232059237
NO-104
1 44354U 19036R 20205.49635254 .00009236 00000-0 13287-3 0 9990
2 44354 028.5311 143.8240 0362337 336.0992 022.3152 15.03930893059257
NO-103
1 44355U 19036S 20205.50415309 .00019591 00000-0 27187-3 0 9999
2 44355 028.5307 133.1309 0339455 353.4812 006.1439 15.09726916059365
CP9
1 44360U 19036X 20205.47090108 .00034516 -54950-5 38796-3 0 9998
2 44360 028.5126 116.3652 0319130 021.6371 339.7382 15.17496844059406
Move-IIb
1 44398U 19038N 20205.61187477 .00000764 00000-0 47547-4 0 9997
2 44398 097.5381 166.3871 0025499 007.0407 353.1176 15.12381452058047
SONATE
1 44400U 19038Q 20205.52305604 .00000335 00000-0 23242-4 0 9995
2 44400 097.5422 166.3124 0025412 005.9460 354.2067 15.11983499058026
BeeSat 9
1 44412U 19038AC 20205.39667260 .00000524 00000-0 33889-4 0 9990
2 44412 097.5406 166.2849 0023116 012.1889 347.9896 15.12343380057701
JAISAT-1
1 44419U 19038F 20205.47162688 .00000527 00000-0 33597-4 0 9999
2 44419 097.5407 166.6506 0021956 011.1163 349.0548 15.12827022058042
LightSail-2
1 44420U 19036AC 20205.58261540 .00004208 00000-0 89014-3 0 9992
2 44420 024.0077 239.4682 0015723 151.5015 208.6339 14.55944020055595
Taurus 1
1 44530U 19059C 20205.72719039 -.00000134 00000-0 -25010-4 0 9999
2 44530 98.5696 287.1629 0016264 58.3948 301.8840 14.45522133 45588
MO-106
1 44830U 19084G 20205.42305970 .00061424 00000-0 29126-3 0 9990
2 44830 096.9669 075.0044 0024513 099.6213 260.7827 15.82329609036131
TRSI-Sat
1 44831U 19084H 20205.43789870 .00059307 00000-0 28647-3 0 9991
2 44831 096.9685 075.0102 0024660 098.5952 261.8113 15.81934411036149
MO-105
1 44832U 19084J 20205.88723664 .00073985 38050-5 32269-3 0 9994
2 44832 96.9679 75.7375 0022476 96.8109 263.5720 15.84438943 36224
Duchifat 3
1 44854U 19089C 20205.79564063 .00000123 00000-0 16395-4 0 9995
2 44854 36.9687 243.5763 0009275 351.8569 8.2027 14.99086585 33758
OPS-SAT
1 44878U 19092F 20205.48573856 .00000644 00000-0 37451-4 0 9995
2 44878 97.4694 28.1472 0012859 227.3880 132.6269 15.15533483 32991
TO-108
1 44881U 19093C 20205.73218291 -.00000014 00000-0 50358-5 0 9991
2 44881 97.9577 281.5377 0013636 280.5699 79.3981 14.81415247 32067
FloripaSat 1
1 44885U 19093G 20205.71500990 .00000127 00000-0 22783-4 0 9997
2 44885 97.9579 281.6980 0013458 292.4616 67.5172 14.82049513 32079
RS-44
1 44909U 19096E 20205.47929147 .00000025 00000-0 49105-4 0 9993
2 44909 82.5237 331.3732 0218205 142.0797 219.5901 12.79708164 26791
SwampSat-2
1 45115U 19071E 20205.52068798 .00005227 00000-0 15844-3 0 9999
2 45115 051.6403 187.7865 0011882 188.7122 171.3656 15.35784117026669
HO-107
1 45119U 19071J 20205.23691989 .00001011 00000-0 42068-4 0 9991
2 45119 051.6426 190.3696 0012130 180.6330 179.4639 15.33659399026615
Phoenix
1 45258U 98067RB 20205.46387143 .00002752 00000-0 54182-4 0 9999
2 45258 051.6409 167.4488 0006663 112.4296 247.7400 15.51083091024064
AztechSat-1
1 45261U 98067RE 20205.59248712 .00005157 00000-0 90958-4 0 9998
2 45261 051.6407 166.0651 0008062 128.6825 231.4887 15.52225906024125
QARMAN
1 45263U 98067RG 20205.45050279 .00004297 00000-0 78998-4 0 9998
2 45263 051.6409 167.3643 0007633 125.1234 235.0472 15.51514197024125
Quetzal 1
1 45598U 98067RL 20205.28635027 .00003955 00000-0 75559-4 0 9990
2 45598 051.6413 169.2666 0002331 209.4301 150.6557 15.50638518013350
BY70-2
1 45857U 20042B 20205.85121738 .00000558 00000-0 88013-4 0 9993
2 45857 98.0141 278.7088 0011417 182.8013 177.3130 14.76218525 3052
/EX
1
0
SB KEPS @ AMSAT $ORB20198.N
2Line Orbital Elements 20198.AMSAT
HR AMSAT ORBITAL ELEMENTS FOR AMATEUR SATELLITES IN NASA FORMAT
FROM WA5QGD FORT WORTH,TX July 16, 2020
BID: ORB20198.N
DECODE 2-LINE ELSETS WITH THE FOLLOWING KEY:
1 AAAAAU 00 0 0 BBBBB.BBBBBBBB .CCCCCCCC 00000-0 00000-0 0 DDDZ
2 AAAAA EEE.EEEE FFF.FFFF GGGGGGG HHH.HHHH III.IIII JJ.JJJJJJJJKKKKKZ
KEY: A-CATALOGNUM B-EPOCHTIME C-DECAY D-ELSETNUM E-INCLINATION F-RAAN
G-ECCENTRICITY H-ARGPERIGEE I-MNANOM J-MNMOTION K-ORBITNUM Z-CHECKSUM
TO ALL RADIO AMATEURS BT
AO-07
1 07530U 74089B 20198.38798810 -.00000037 00000-0 51953-4 0 9995
2 07530 101.8012 167.9693 0011953 310.2360 204.6161 12.53644215089612
UO-11
1 14781U 84021B 20198.77131597 .00000030 00000-0 97452-5 0 9991
2 14781 97.5893 209.2869 0010012 102.8195 257.4139 14.83178196957178
LO-19
1 20442U 90005G 20198.55979584 -.00000022 00000-0 81992-5 0 9997
2 20442 098.6935 145.9099 0012905 070.9925 289.2656 14.32956498592724
HUBBLE
1 20580U 90037B 20198.53282903 .00000321 00000-0 85126-5 0 9999
2 20580 028.4693 127.3278 0002800 049.0674 113.8123 15.09406115460369
MET-2/21
1 22782U 93055A 20198.46317016 .00000043 00000-0 25431-4 0 9997
2 22782 082.5476 210.5610 0023106 150.7314 003.3995 13.83826448357059
AO-27
1 22825U 93061C 20198.75817794 -.00000008 00000-0 15024-4 0 9991
2 22825 98.9232 201.9482 0007410 295.4560 64.5854 14.30088654398273
IO-26
1 22826U 93061D 20198.73772427 -.00000006 00000-0 15506-4 0 9996
2 22826 98.9172 201.8711 0007851 281.8083 78.2218 14.30424578398487
FO-29
1 24278U 96046B 20198.74477235 -.00000050 00000-0 -11148-4 0 9993
2 24278 98.5862 304.7440 0349438 299.1027 57.5545 13.53098045181094
NOAA-15
1 25338U 98030A 20198.69388264 .00000062 00000-0 44444-4 0 9999
2 25338 98.7151 223.5937 0010577 171.4666 188.6695 14.25979292153390
